Time,TemperatureF,DewpointF,PressureIn,WindDirection,WindDirectionDegrees,WindSpeedMPH,WindSpeedGustMPH,Humidity,HourlyPrecipIn,Conditions,Clouds,dailyrainin,SoftwareType,DateUTC
2013-03-08 00:00:00,32.5,31.0,30.03,South,183,1.0,4.0,95,0.01,,,0.03,weatherlink.com 1.10,2013-03-08 05:00:00,
2013-03-08 00:15:00,32.5,31.0,30.03,SSE,164,1.0,6.0,95,0.01,,,0.03,weatherlink.com 1.10,2013-03-08 05:15:00,
2013-03-08 00:30:00,32.4,31.0,30.02,West,280,0.0,3.0,95,0.01,,,0.03,weatherlink.com 1.10,2013-03-08 05:30:00,
2013-03-08 00:45:00,32.4,31.0,30.02,West,260,2.0,2.0,95,0.01,,,0.03,weatherlink.com 1.10,2013-03-08 05:45:00,
2013-03-08 01:00:00,32.3,31.0,30.02,SE,144,0.0,5.0,95,0.00,,,0.03,weatherlink.com 1.10,2013-03-08 06:00:00,
2013-03-08 01:15:00,32.3,31.0,30.02,WSW,258,1.0,5.0,95,0.00,,,0.03,weatherlink.com 1.10,2013-03-08 06:15:00,
2013-03-08 01:30:00,32.2,31.0,30.02,WNW,284,1.0,6.0,95,0.00,,,0.03,weatherlink.com 1.10,2013-03-08 06:30:00,
2013-03-08 01:45:00,32.2,31.0,30.02,West,269,2.0,3.0,95,0.00,,,0.03,weatherlink.com 1.10,2013-03-08 06:45:00,
2013-03-08 02:00:00,32.1,31.0,30.01,NW,316,2.0,4.0,95,0.00,,,0.03,weatherlink.com 1.10,2013-03-08 07:00:00,
2013-03-08 02:15:00,32.1,31.0,30.00,NW,311,1.0,3.0,95,0.00,,,0.03,weatherlink.com 1.10,2013-03-08 07:15:00,
2013-03-08 02:30:00,32.1,31.0,30.00,East,96,1.0,2.0,95,0.00,,,0.03,weatherlink.com 1.10,2013-03-08 07:30:00,
2013-03-08 02:45:00,32.1,31.0,30.00,NNW,330,1.0,4.0,95,0.00,,,0.03,weatherlink.com 1.10,2013-03-08 07:45:00,
2013-03-08 03:00:00,32.0,31.0,29.99,NW,315,1.0,4.0,95,0.00,,,0.03,weatherlink.com 1.10,2013-03-08 08:00:00,
2013-03-08 03:15:00,32.0,31.0,29.99,SE,131,1.0,3.0,95,0.00,,,0.03,weatherlink.com 1.10,2013-03-08 08:15:00,
2013-03-08 03:30:00,31.9,31.0,29.98,East,92,2.0,5.0,95,0.00,,,0.03,weatherlink.com 1.10,2013-03-08 08:30:00,
2013-03-08 03:45:00,31.8,31.0,29.99,East,92,1.0,5.0,95,0.00,,,0.03,weatherlink.com 1.10,2013-03-08 08:45:00,
2013-03-08 04:00:00,31.6,30.0,29.99,NE,47,1.0,4.0,95,0.00,,,0.03,weatherlink.com 1.10,2013-03-08 09:00:00,
2013-03-08 04:15:00,31.6,30.0,29.99,South,172,2.0,4.0,95,0.00,,,0.03,weatherlink.com 1.10,2013-03-08 09:15:00,
2013-03-08 04:30:00,31.6,31.0,29.99,WNW,296,1.0,3.0,96,0.00,,,0.03,weatherlink.com 1.10,2013-03-08 09:30:00,
2013-03-08 04:45:00,31.5,31.0,29.98,NW,304,1.0,4.0,96,0.00,,,0.03,weatherlink.com 1.10,2013-03-08 09:45:00,
2013-03-08 05:00:00,31.5,31.0,29.98,NW,311,1.0,4.0,96,0.00,,,0.03,weatherlink.com 1.10,2013-03-08 10:00:00,
2013-03-08 05:15:00,31.4,30.0,29.98,NNE,17,0.0,5.0,96,0.00,,,0.03,weatherlink.com 1.10,2013-03-08 10:15:00,
2013-03-08 05:30:00,31.4,30.0,29.98,NNE,17,1.0,5.0,96,0.00,,,0.03,weatherlink.com 1.10,2013-03-08 10:30:00,
2013-03-08 05:45:00,31.4,30.0,29.98,NNE,18,2.0,5.0,96,0.00,,,0.03,weatherlink.com 1.10,2013-03-08 10:45:00,
2013-03-08 06:00:00,31.2,30.0,29.98,NNE,18,0.0,5.0,96,0.00,,,0.03,weatherlink.com 1.10,2013-03-08 11:00:00,
2013-03-08 06:15:00,31.2,30.0,29.98,NNE,18,0.0,3.0,96,0.00,,,0.03,weatherlink.com 1.10,2013-03-08 11:15:00,
2013-03-08 06:30:00,31.0,30.0,29.98,NNE,18,2.0,6.0,96,0.00,,,0.03,weatherlink.com 1.10,2013-03-08 11:30:00,
2013-03-08 06:45:00,30.9,30.0,29.98,NNE,17,0.0,5.0,96,0.00,,,0.03,weatherlink.com 1.10,2013-03-08 11:45:00,
2013-03-08 07:00:00,30.8,30.0,29.98,NNE,18,0.0,6.0,96,0.00,,,0.03,weatherlink.com 1.10,2013-03-08 12:00:00,
2013-03-08 07:15:00,30.8,30.0,29.98,NNE,18,1.0,5.0,96,0.00,,,0.03,weatherlink.com 1.10,2013-03-08 12:15:00,
2013-03-08 07:30:00,30.8,30.0,29.99,NNE,18,0.0,4.0,96,0.00,,,0.03,weatherlink.com 1.10,2013-03-08 12:30:00,
2013-03-08 07:45:00,30.9,30.0,29.99,NNE,17,1.0,4.0,96,0.00,,,0.03,weatherlink.com 1.10,2013-03-08 12:45:00,
2013-03-08 08:00:00,30.9,30.0,29.99,NNE,18,2.0,5.0,96,0.00,,,0.03,weatherlink.com 1.10,2013-03-08 13:00:00,
2013-03-08 08:16:00,30.9,30.0,29.99,NNE,18,3.0,7.0,96,0.00,,,0.03,weatherlink.com 1.10,2013-03-08 13:16:00,
2013-03-08 08:30:00,31.0,30.0,29.99,NNE,17,1.0,6.0,96,0.00,,,0.03,weatherlink.com 1.10,2013-03-08 13:30:00,
2013-03-08 08:45:00,31.2,30.0,29.99,NNE,17,1.0,6.0,96,0.00,,,0.03,weatherlink.com 1.10,2013-03-08 13:45:00,
2013-03-08 09:00:00,31.3,30.0,29.99,NNE,18,0.0,4.0,96,0.00,,,0.03,weatherlink.com 1.10,2013-03-08 14:00:00,
2013-03-08 09:15:00,31.5,31.0,29.99,NNE,18,1.0,4.0,96,0.00,,,0.03,weatherlink.com 1.10,2013-03-08 14:15:00,
2013-03-08 09:30:00,31.6,31.0,29.99,NNE,18,2.0,5.0,96,0.00,,,0.03,weatherlink.com 1.10,2013-03-08 14:30:00,
2013-03-08 09:45:00,31.7,31.0,30.00,NNE,16,1.0,5.0,96,0.00,,,0.03,weatherlink.com 1.10,2013-03-08 14:45:00,
2013-03-08 10:00:00,31.7,31.0,30.00,NNE,16,1.0,3.0,96,0.01,,,0.04,weatherlink.com 1.10,2013-03-08 15:00:00,
2013-03-08 10:15:00,32.0,31.0,30.00,North,8,4.0,6.0,96,0.01,,,0.04,weatherlink.com 1.10,2013-03-08 15:15:00,
2013-03-08 10:30:00,32.2,31.0,30.00,North,6,3.0,11.0,96,0.01,,,0.04,weatherlink.com 1.10,2013-03-08 15:30:00,
2013-03-08 10:46:00,32.3,31.0,30.00,North,5,2.0,9.0,96,0.01,,,0.04,weatherlink.com 1.10,2013-03-08 15:46:00,
2013-03-08 11:01:00,32.4,31.0,30.00,North,359,2.0,9.0,96,0.00,,,0.04,weatherlink.com 1.10,2013-03-08 16:01:00,
2013-03-08 11:16:00,32.6,32.0,30.00,North,355,1.0,10.0,96,0.00,,,0.04,weatherlink.com 1.10,2013-03-08 16:16:00,
2013-03-08 11:31:00,32.5,32.0,30.01,North,354,1.0,11.0,96,0.01,,,0.05,weatherlink.com 1.10,2013-03-08 16:31:00,
2013-03-08 11:46:00,32.8,32.0,30.01,North,352,5.0,12.0,96,0.01,,,0.05,weatherlink.com 1.10,2013-03-08 16:46:00,
2013-03-08 12:01:00,33.3,32.0,30.01,NNW,347,3.0,10.0,95,0.01,,,0.00,weatherlink.com 1.10,2013-03-08 17:01:00,
2013-03-08 12:16:00,33.2,32.0,30.01,NNW,342,3.0,9.0,95,0.01,,,0.00,weatherlink.com 1.10,2013-03-08 17:16:00,
2013-03-08 12:31:00,33.4,32.0,30.00,NE,39,3.0,10.0,95,0.00,,,0.00,weatherlink.com 1.10,2013-03-08 17:31:00,
2013-03-08 12:46:00,33.7,33.0,30.00,NNW,338,2.0,15.0,95,0.00,,,0.00,weatherlink.com 1.10,2013-03-08 17:46:00,
2013-03-08 13:01:00,34.2,33.0,30.00,NE,44,2.0,8.0,95,0.01,,,0.01,weatherlink.com 1.10,2013-03-08 18:01:00,
2013-03-08 13:16:00,34.0,33.0,30.00,NE,49,1.0,9.0,95,0.01,,,0.01,weatherlink.com 1.10,2013-03-08 18:16:00,
2013-03-08 13:31:00,34.1,33.0,30.00,West,269,2.0,9.0,94,0.01,,,0.01,weatherlink.com 1.10,2013-03-08 18:31:00,
2013-03-08 13:46:00,33.9,33.0,30.00,ENE,65,2.0,9.0,95,0.01,,,0.01,weatherlink.com 1.10,2013-03-08 18:46:00,
2013-03-08 14:01:00,34.0,33.0,30.00,ENE,61,4.0,7.0,95,0.01,,,0.02,weatherlink.com 1.10,2013-03-08 19:01:00,
2013-03-08 14:16:00,34.1,33.0,30.01,NNW,338,1.0,5.0,95,0.01,,,0.02,weatherlink.com 1.10,2013-03-08 19:16:00,
2013-03-08 14:31:00,34.6,33.0,30.01,WSW,255,4.0,9.0,95,0.01,,,0.02,weatherlink.com 1.10,2013-03-08 19:31:00,
2013-03-08 14:46:00,35.0,34.0,30.01,NE,37,1.0,8.0,94,0.02,,,0.03,weatherlink.com 1.10,2013-03-08 19:46:00,
2013-03-08 15:01:00,35.1,34.0,30.02,NNE,19,2.0,8.0,94,0.03,,,0.05,weatherlink.com 1.10,2013-03-08 20:01:00,
2013-03-08 15:16:00,35.2,34.0,30.01,WNW,295,1.0,9.0,94,0.07,,,0.09,weatherlink.com 1.10,2013-03-08 20:16:00,
2013-03-08 15:31:00,35.3,34.0,30.02,NNW,335,3.0,6.0,94,0.12,,,0.14,weatherlink.com 1.10,2013-03-08 20:31:00,
2013-03-08 15:46:00,35.6,34.0,30.02,NE,44,3.0,7.0,93,0.15,,,0.18,weatherlink.com 1.10,2013-03-08 20:46:00,
2013-03-08 16:01:00,35.8,34.0,30.03,WNW,290,5.0,7.0,92,0.17,,,0.22,weatherlink.com 1.10,2013-03-08 21:01:00,
2013-03-08 16:16:00,36.0,34.0,30.04,NE,50,1.0,12.0,91,0.16,,,0.26,weatherlink.com 1.10,2013-03-08 21:16:00,
2013-03-08 16:31:00,36.0,34.0,30.04,East,94,1.0,6.0,92,0.14,,,0.29,weatherlink.com 1.10,2013-03-08 21:31:00,
2013-03-08 16:46:00,36.3,34.0,30.03,WNW,284,1.0,6.0,91,0.12,,,0.31,weatherlink.com 1.10,2013-03-08 21:46:00,
2013-03-08 17:01:00,36.7,34.0,30.05,NW,312,2.0,4.0,91,0.10,,,0.33,weatherlink.com 1.10,2013-03-08 22:01:00,
2013-03-08 17:16:00,37.1,34.0,30.06,NNW,332,2.0,4.0,88,0.08,,,0.34,weatherlink.com 1.10,2013-03-08 22:16:00,
2013-03-08 17:31:00,37.0,33.0,30.07,SE,134,0.0,5.0,86,0.07,,,0.36,weatherlink.com 1.10,2013-03-08 22:31:00,
2013-03-08 17:46:00,36.9,33.0,30.07,NNE,26,2.0,6.0,84,0.06,,,0.37,weatherlink.com 1.10,2013-03-08 22:46:00,
2013-03-08 18:01:00,37.2,32.0,30.09,ENE,66,5.0,8.0,82,0.05,,,0.38,weatherlink.com 1.10,2013-03-08 23:01:00,
2013-03-08 18:16:00,37.5,32.0,30.09,NW,321,5.0,6.0,80,0.04,,,0.39,weatherlink.com 1.10,2013-03-08 23:16:00,
2013-03-08 18:32:00,37.5,32.0,30.10,North,11,0.0,4.0,81,0.04,,,0.40,weatherlink.com 1.10,2013-03-08 23:32:00,
2013-03-08 18:47:00,37.6,32.0,30.11,WNW,294,2.0,5.0,80,0.04,,,0.41,weatherlink.com 1.10,2013-03-08 23:47:00,
2013-03-08 19:02:00,38.1,31.0,30.12,SSE,158,2.0,6.0,76,0.03,,,0.41,weatherlink.com 1.10,2013-03-09 00:02:00,
2013-03-08 19:17:00,38.4,31.0,30.12,East,81,0.0,5.0,75,0.03,,,0.42,weatherlink.com 1.10,2013-03-09 00:17:00,
2013-03-08 19:32:00,38.7,31.0,30.12,WNW,300,1.0,8.0,73,0.03,,,0.43,weatherlink.com 1.10,2013-03-09 00:32:00,
2013-03-08 19:47:00,39.2,30.0,30.13,NW,323,2.0,6.0,70,0.03,,,0.44,weatherlink.com 1.10,2013-03-09 00:47:00,
2013-03-08 20:02:00,39.3,30.0,30.14,NE,54,2.0,6.0,70,0.03,,,0.44,weatherlink.com 1.10,2013-03-09 01:02:00,
2013-03-08 20:17:00,39.4,30.0,30.14,NE,36,1.0,8.0,69,0.03,,,0.45,weatherlink.com 1.10,2013-03-09 01:17:00,
2013-03-08 20:32:00,39.3,29.0,30.14,ENE,70,3.0,9.0,68,0.02,,,0.45,weatherlink.com 1.10,2013-03-09 01:32:00,
2013-03-08 20:47:00,39.4,29.0,30.14,NE,39,0.0,7.0,67,0.02,,,0.46,weatherlink.com 1.10,2013-03-09 01:47:00,
2013-03-08 21:02:00,39.3,29.0,30.14,NNE,12,2.0,7.0,68,0.02,,,0.46,weatherlink.com 1.10,2013-03-09 02:02:00,
2013-03-08 21:17:00,39.4,29.0,30.14,NW,316,3.0,9.0,67,0.02,,,0.47,weatherlink.com 1.10,2013-03-09 02:17:00,
2013-03-08 21:32:00,39.3,29.0,30.14,NNE,29,3.0,7.0,67,0.02,,,0.47,weatherlink.com 1.10,2013-03-09 02:32:00,
2013-03-08 21:47:00,39.4,29.0,30.14,WNW,292,4.0,12.0,66,0.01,,,0.47,weatherlink.com 1.10,2013-03-09 02:47:00,
2013-03-08 22:02:00,39.4,29.0,30.14,North,1,3.0,8.0,66,0.02,,,0.48,weatherlink.com 1.10,2013-03-09 03:02:00,
2013-03-08 22:17:00,39.4,28.0,30.14,ESE,122,2.0,10.0,65,0.01,,,0.48,weatherlink.com 1.10,2013-03-09 03:17:00,
2013-03-08 22:32:00,39.5,29.0,30.15,NNW,347,2.0,10.0,65,0.02,,,0.49,weatherlink.com 1.10,2013-03-09 03:32:00,
2013-03-08 22:47:00,39.5,29.0,30.15,SE,124,3.0,10.0,65,0.02,,,0.49,weatherlink.com 1.10,2013-03-09 03:47:00,
2013-03-08 23:02:00,39.5,28.0,30.15,East,82,3.0,8.0,64,0.01,,,0.49,weatherlink.com 1.10,2013-03-09 04:02:00,
2013-03-08 23:17:00,39.3,28.0,30.15,NE,36,6.0,8.0,64,0.02,,,0.50,weatherlink.com 1.10,2013-03-09 04:17:00,
2013-03-08 23:32:00,38.9,28.0,30.15,West,277,1.0,9.0,65,0.01,,,0.50,weatherlink.com 1.10,2013-03-09 04:32:00,
2013-03-08 23:47:00,38.6,28.0,30.15,North,4,2.0,8.0,65,0.01,,,0.50,weatherlink.com 1.10,2013-03-09 04:47:00,